Weather History for KPNE - May, 2013

Change the Weather History Date:

Wednesday, May 22, 2013

  Actual Average Record
Temperature  
Mean Temperature 78 °F -  
Max Temperature 86 °F 70 °F 87 °F (2004)
Min Temperature 69 °F 51 °F 39 °F (2002)
Cooling Degree Days 12    
Growing Degree Days 28 (Base 50)    
Moisture  
Dew Point 68 °F    
Average Humidity 76    
Maximum Humidity 90    
Minimum Humidity 51    
Precipitation  
Precipitation 0.00 in - - ()
Sea Level Pressure  
Sea Level Pressure 29.89 in    
Wind  
Wind Speed 8 mph (SW)    
Max Wind Speed 14 mph    
Max Gust Speed 22 mph    
Visibility 7 miles    
Events      
Averages and records for this station are not official NWS values.
T = Trace of Precipitation, MM = Missing Value Source: NWS Daily Summary

Daily Weather History Graph

Daily Weather History Graph

Search for Another Location

Airport or City:

Trip Planner

Search our weather history database for the weather conditions in past years. The results will help you decide how hot, cold, wet, or windy it might be!

Date:

Astronomy

May. 22, 2013 Rise Set
Actual Time 5:38 AM EDT 8:15 PM EDT
Civil Twilight 5:07 AM EDT 8:46 PM EDT
Nautical Twilight 4:28 AM EDT 9:26 PM EDT
Astronomical Twilight 3:44 AM EDT 10:10 PM EDT
Moon 5:34 PM EDT (5/22) 3:41 AM EDT (5/22)
Length of Visible Light 15h 39m
Length of Day
14h 36m
Waxing Gibbous, 91% of the Moon is Illuminated
May 22
Waxing Gibbous
May 25
Full
May 31
Last Quarter
Jun 8
New
Jun 16
First Quarter

Hourly Weather History & Observations

Time (EDT) Temp. Heat Index Dew Point Humidity Pressure Visibility Wind Dir Wind Speed Gust Speed Precip Events Conditions
12:54 AM 73.0 °F - 66.0 °F 79% 29.90 in 10.0 mi SW 11.5 mph 18.4 mph N/A   Clear
1:54 AM 71.1 °F - 66.0 °F 84% 29.89 in 10.0 mi SSW 5.8 mph - N/A   Clear
2:54 AM 70.0 °F - 66.0 °F 87% 29.87 in 10.0 mi Variable 4.6 mph - N/A   Clear
3:54 AM 70.0 °F - 66.0 °F 87% 29.87 in 9.0 mi SW 3.5 mph - N/A   Clear
4:54 AM 69.1 °F - 66.0 °F 90% 29.87 in 7.0 mi SW 3.5 mph - N/A   Clear
5:23 AM 69.8 °F - 66.2 °F 88% 29.88 in 7.0 mi SW 4.6 mph - N/A   Mostly Cloudy
5:38 AM 69.8 °F - 66.2 °F 88% 29.88 in 7.0 mi WSW 3.5 mph - N/A   Overcast
5:54 AM 70.0 °F - 66.9 °F 90% 29.88 in 5.0 mi WSW 10.4 mph - N/A   Overcast
6:54 AM 71.1 °F - 68.0 °F 90% 29.90 in 2.5 mi SW 6.9 mph - N/A   Overcast
7:54 AM 71.1 °F - 68.0 °F 90% 29.91 in 2.5 mi SSW 5.8 mph - N/A   Overcast
8:54 AM 72.0 °F - 68.0 °F 87% 29.92 in 2.5 mi SW 6.9 mph - N/A   Overcast
9:54 AM 73.0 °F - 68.0 °F 84% 29.93 in 2.5 mi SSW 5.8 mph - N/A   Haze
10:54 AM 73.0 °F - 69.1 °F 87% 29.93 in 2.5 mi SW 6.9 mph - N/A   Overcast
11:20 AM 73.4 °F - 69.8 °F 88% 29.93 in 2.5 mi North - - N/A   Haze
11:54 AM 75.9 °F - 69.1 °F 79% 29.92 in 2.5 mi SSW 8.1 mph - N/A   Haze
12:24 PM 77.0 °F - 69.8 °F 78% 29.92 in 5.0 mi Variable 3.5 mph - N/A   Haze
12:54 PM 80.1 °F 83.2 °F 70.0 °F 71% 29.91 in 5.0 mi Variable 5.8 mph - N/A   Haze
1:20 PM 80.6 °F 83.9 °F 69.8 °F 70% 29.91 in 7.0 mi SW 9.2 mph - N/A   Scattered Clouds
1:54 PM 82.9 °F 87.0 °F 70.0 °F 65% 29.89 in 10.0 mi SW 10.4 mph 19.6 mph N/A   Partly Cloudy
2:54 PM 84.9 °F 88.2 °F 68.0 °F 57% 29.88 in 10.0 mi SSW 11.5 mph 18.4 mph N/A   Clear
3:54 PM 86.0 °F 88.2 °F 66.0 °F 51% 29.86 in 10.0 mi SSW 13.8 mph 21.9 mph N/A   Clear
4:54 PM 86.0 °F 88.2 °F 66.0 °F 51% 29.85 in 10.0 mi SSW 10.4 mph - N/A   Clear
5:54 PM 84.9 °F 87.6 °F 66.9 °F 55% 29.84 in 10.0 mi SSW 10.4 mph 17.3 mph N/A   Clear
6:54 PM 82.0 °F 84.1 °F 66.0 °F 58% 29.85 in 10.0 mi South 8.1 mph - N/A   Clear
7:54 PM 80.1 °F 82.9 °F 69.1 °F 69% 29.86 in 10.0 mi SW 10.4 mph - N/A   Scattered Clouds
8:54 PM 79.0 °F - 68.0 °F 69% 29.87 in 10.0 mi SSW 8.1 mph - N/A   Clear
9:54 PM 77.0 °F - 68.0 °F 74% 29.90 in 10.0 mi SSW 8.1 mph 18.4 mph N/A   Clear
10:54 PM 75.9 °F - 66.9 °F 74% 29.91 in 10.0 mi SW 10.4 mph - N/A   Clear
11:54 PM 75.0 °F - 66.9 °F 76% 29.90 in 10.0 mi Variable 3.5 mph - N/A   Clear